Mercury, NV

2:47 AM PDT on April 19, 2018 (GMT -0700)
Mercury

Weather History for KDRA - December, 2012

Change the Weather History Date:

Saturday, December 29, 2012

  Actual Average Record
Temperature  
Mean Temperature 39 °F 43 °F  
Max Temperature 48 °F 54 °F 69 °F (1998)
Min Temperature 30 °F 31 °F 20 °F (1990)
Degree Days  
Heating Degree Days 26    
Cooling Degree Days 0    
Moisture  
Dew Point 18 °F    
Average Humidity 42    
Maximum Humidity 61    
Minimum Humidity 17    
Precipitation  
Precipitation 0.00 in 0.03 in 1.01 in (2004)
Month to date precipitation 0.59  
Year to date precipitation 5.88  
Sea Level Pressure  
Sea Level Pressure 30.00 in    
Wind  
Wind Speed 5 mph (East)    
Max Wind Speed 12 mph    
Max Gust Speed -    
Visibility 10 miles    
Events      
T = Trace of Precipitation, MM = Missing Value Source: NWS Daily Summary

Daily Weather History Graph

Daily Weather History Graph

Search for Another Location

Airport or City:

Astronomy

Dec. 29, 2012 Rise Set
Actual Time 6:55 AM PST 4:37 PM PST
Civil Twilight 6:27 AM PST 5:06 PM PST
Nautical Twilight 5:54 AM PST 5:38 PM PST
Astronomical Twilight 5:23 AM PST 6:09 PM PST
Moon 6:11 PM PST (12/29) 7:34 AM PST (12/29)
Length of Visible Light 10h 38m
Length of Day
9h 41m
Full, 98% of the Moon is Illuminated
Dec 29
Full
Jan 4
Last Quarter
Jan 11
New
Jan 18
First Quarter
Jan 26
Full

Hourly Weather History & Observations

Time (PST) Temp. Windchill Dew Point Humidity Pressure Visibility Wind Dir Wind Speed Gust Speed Precip Events Conditions
12:52 AM 34.0 °F 28.0 °F 18.0 °F 52% 30.08 in 10.0 mi East 6.9 mph - N/A   Clear
1:52 AM 35.1 °F 27.9 °F 18.0 °F 50% 30.08 in 10.0 mi ESE 9.2 mph - N/A   Clear
2:52 AM 30.0 °F 26.5 °F 18.0 °F 61% 30.08 in 10.0 mi East 3.5 mph - N/A   Clear
3:52 AM 34.0 °F 29.8 °F 18.0 °F 52% 30.06 in 10.0 mi NE 4.6 mph - N/A   Clear
4:52 AM 32.0 °F 27.5 °F 19.0 °F 59% 30.06 in 10.0 mi NNE 4.6 mph - N/A   Partly Cloudy
5:52 AM 32.0 °F - 19.0 °F 59% 30.07 in 10.0 mi Calm Calm - N/A   Overcast
6:52 AM 32.0 °F 27.5 °F 18.0 °F 56% 30.07 in 10.0 mi NE 4.6 mph - N/A   Mostly Cloudy
7:52 AM 35.1 °F 29.3 °F 18.0 °F 50% 30.06 in 10.0 mi ESE 6.9 mph - N/A   Partly Cloudy
8:52 AM 37.9 °F 30.5 °F 18.0 °F 45% 30.06 in 10.0 mi ESE 11.5 mph - N/A   Partly Cloudy
9:52 AM 39.9 °F 34.5 °F 18.0 °F 41% 30.07 in 10.0 mi ESE 8.1 mph - N/A   Mostly Cloudy
10:52 AM 43.0 °F - 18.0 °F 37% 30.03 in 10.0 mi Calm Calm - N/A   Scattered Clouds
11:52 AM 44.1 °F 41.5 °F 17.1 °F 34% 29.99 in 10.0 mi NW 4.6 mph - N/A   Mostly Cloudy
12:52 PM 45.0 °F 40.6 °F 16.0 °F 31% 29.94 in 10.0 mi SE 8.1 mph - N/A   Partly Cloudy
1:52 PM 45.0 °F 43.5 °F 14.0 °F 29% 29.93 in 10.0 mi Variable 3.5 mph - N/A   Mostly Cloudy
2:52 PM 45.0 °F 42.6 °F 15.1 °F 30% 29.94 in 10.0 mi Variable 4.6 mph - N/A   Partly Cloudy
3:52 PM 45.0 °F 42.6 °F 15.1 °F 30% 29.93 in 10.0 mi ESE 4.6 mph - N/A   Mostly Cloudy
4:52 PM 43.0 °F 41.3 °F 16.0 °F 34% 29.94 in 10.0 mi ESE 3.5 mph - N/A   Overcast
5:52 PM 43.0 °F 38.8 °F 16.0 °F 34% 29.95 in 10.0 mi SSE 6.9 mph - N/A   Overcast
6:52 PM 39.9 °F - 16.0 °F 38% 29.96 in 10.0 mi Calm Calm - N/A   Mostly Cloudy
7:52 PM 39.0 °F - 18.0 °F 43% 29.96 in 10.0 mi Calm Calm - N/A   Overcast
8:52 PM 37.0 °F - 19.0 °F 48% 29.96 in 10.0 mi Calm Calm - N/A   Overcast
9:52 PM 37.0 °F - 19.9 °F 50% 29.96 in 10.0 mi Calm Calm - N/A   Overcast
10:52 PM 37.9 °F - 19.9 °F 48% 29.95 in 10.0 mi Calm Calm - N/A   Overcast
11:52 PM 35.1 °F 31.0 °F 21.0 °F 57% 29.94 in 10.0 mi East 4.6 mph - N/A   Overcast